Location: Crescent
(42.8242°N, 73.7329°W)
Time: 18:18:05
(UTC+00:00)

Vanguard 1 - Pass Details

Date: 22 February 2026
Orbit: 653 x 3818 km, 34.2° (Epoch: 5 March)

Event Time Altitude Azimuth Distance (km) Brightness Sun altitude
Rises 01:18:04 0° 279° (W) 6,254 15.3 -30.5°
Reaches altitude 10° 01:22:06 10° 271° (W) 5,619 14.7 -31.2°
Maximum altitude 01:38:09 38° 213° (SSW) 4,726 13.4 -34.0°
Enters shadow 01:53:03 19° 163° (SSE) 6,129 13.7 -36.6°
Drops below altitude 10° 01:58:03 10° 155° (SSE) 6,827 - -37.4°
Sets 02:03:47 0° 148° (SSE) 7,671 - -38.4°
